Regional Weather Roundup
Issued by NWS

Home | Current Version | Previous Version | Text Only | Print | Product List | Glossary On
Versions: 1 2 3 4 5 6 7 8 9 10 11 12 13 14 15 16 17 18 19 20 21 22 23 24 25 26 27 28 29 30 31 32 33 34 35 36 37 38 39 40 41 42 43 44 45 46 47 48 49 50
000
ASUS43 KDTX 051301
RWRMI
MICHIGAN HOURLY REGIONAL WEATHER ROUNDUP
NATIONAL WEATHER SERVICE DETROIT/PONTIAC MI
800 AM EST THU MAR 05 2015

NOTE: "FAIR" INDICATES FEW OR NO CLOUDS BELOW 12,000 FEET WITH NO
SIGNIFICANT WEATHER AND/OR OBSTRUCTION TO VISIBILITY.

MIZ047>049-052>055-059>063-066>070-074>076-081>083-051400-
SOUTHEAST LOWER MICHIGAN

CITY           SKY/WX    TMP DP  RH WIND       PRES   REMARKS
ADRIAN         MOCLDY     7  -1  70 N7        30.35R WCI  -5
ALMA           PTCLDY    -3  -6  84 CALM      30.40R
ANN ARBOR      MOCLDY     8  -1  66 NE12      30.34R WCI  -7
BAD AXE        MOCLDY     2  -6  70 W6        30.35R WCI  -9
CARO           MOCLDY    -3  -8  76 CALM      30.38R
DETROIT CITY   PTCLDY    10  -2  58 N7        30.37R WCI  -1
DETROIT        CLOUDY    10   0  63 N7        30.37R WCI  -1
FLINT          PTCLDY     2  -6  69 W3        30.38R
GROSSE ILE     CLOUDY    10   1  67 NE7       30.35S WCI   0
HILLSDALE      MOCLDY     5  -4  67 CALM      30.30F
HOWELL         PTCLDY     1  -5  78 CALM      30.36R

CITY           SKY/WX    TMP DP  RH WIND       PRES   REMARKS
JACKSON        MOCLDY     5  -2  72 NE6       30.34R WCI  -6
LAMBERTVILLE   CLOUDY    14   3  62 CALM      30.37S
LANSING        MOCLDY     3  -3  76 N3        30.37R
LAPEER         FAIR      -8 -12  82 CALM      30.37R
MASON          PTCLDY     1  -4  80 CALM      30.36R
MONROE         CLOUDY    10   1  67 N5        30.34S WCI   2
MT. CLEMENS    CLOUDY     5  -2  71 NW6       30.36R WCI  -5
PONTIAC        MOCLDY     3  -4  72 CALM      30.34R
PORT HOPE        N/A      8  -1  66 NW9       30.32S WCI  -5
PORT HURON     PTCLDY     3  -6  66 CALM      30.38R
TRI CITIES     MOCLDY     2  -6  69 W6        30.41R WCI  -9
TROY           PTCLDY     9  -3  58 CALM      30.38R
SAGINAW HB     MOCLDY     5  -4  66 W5        30.41R WCI  -4
$$
MIZ043>046-050>051-056>058-064>065-071>073-077>080-051400-
SOUTHWEST LOWER MICHIGAN

CITY           SKY/WX    TMP DP  RH WIND       PRES   REMARKS
BATTLE CREEK   MOCLDY     5  -3  69 NE5       30.35R WCI  -4
BENTON HARBOR  MOCLDY    10   5  80 NE3       30.37F
BIG RAPIDS     PTCLDY   -10 -14  83 CALM      30.35R
COLDWATER      MOCLDY     1  -4  78 CALM      30.35R
FREMONT        FAIR      -6 -11  78 CALM      30.37S
HOLLAND        CLOUDY     8  -1  66 E8        30.39R WCI  -4
GRAND RAPIDS   MOCLDY     4  -3  73 E5        30.37R WCI  -5
IONIA          CLOUDY     3  -3  74 CALM      30.37R
KALAMAZOO      MOCLDY     7  -1  70 NE6       30.35F WCI  -3
LUDINGTON      LGT SNOW   7   1  78 CALM      30.38S
MARSHALL       MOCLDY     2  -3  79 CALM      30.34S
MOUNT PLEASANT PTCLDY    -6 -10  83 CALM      30.38R
MUSKEGON       CLOUDY     5  -2  72 E6        30.39R WCI  -6
SOUTH HAVEN    MOCLDY    10   4  77 E3        30.36F
$$
MIZ016>042-051400-
NORTHERN LOWER MICHIGAN

CITY           SKY/WX    TMP DP  RH WIND       PRES   REMARKS
ALPENA         CLEAR     -4 -10  75 SW3       30.35R
BEAVER ISLAND  CLEAR    -14 -19  81 CALM      30.36R
BELLAIRE       CLEAR    -18 -24  74 CALM      30.39R
CADILLAC       CLEAR    -16 -22  72 CALM      30.30R
CHARLEVOIX     CLEAR    -11 -15  82 CALM      30.39R
FRANKFORT      LGT SNOW   4   1  86 SE3       30.38R
GAYLORD        CLEAR    -13 -16  86 W3        30.27R FOG
GRAYLING       LGT SNOW -21 -28  70 CALM      30.32R VSB 3/4
HARBOR SPRINGS CLEAR    -10 -14  80 CALM      30.35R
HOUGHTON LAKE  PTCLDY   -14 -19  79 CALM      30.33R
MANISTEE       CLOUDY     5   0  78 SE3       30.38R
OSCODA         CLEAR     -7 -13  74 CALM      30.36R
PELLSTON       CLEAR    -21 -24  86 CALM      30.36R
ROGERS CITY    CLEAR     -3  -7  84 W6        30.35R WCI -15
TRAVERSE CITY  PTCLDY    -9 -12  87 CALM      30.37R
$$
MIZ007>008-015-051400-
EASTERN UPPER MICHIGAN

CITY           SKY/WX    TMP DP  RH WIND       PRES   REMARKS
KINROSS        PTCLDY    -9 -11  92 W5        30.33R WCI -21
MACKINAC ISLAN PTCLDY    -5  -9  82 NW3       30.34R
NEWBERRY       PTCLDY   -12 -13  92 CALM      30.33R
S. S. MARIE    PTCLDY   -12 -17  78 E3        30.33R
MUNISING         N/A     -1  -8  72 S6        30.36R WCI -13
$$
MIZ004>006-011>014-085-051400-
CENTRAL UPPER MICHIGAN

CITY           SKY/WX    TMP DP  RH WIND       PRES   REMARKS
MANISTIQUE     MOCLDY   -11 -15  84 NW3       30.36R
ESCANABA       CLEAR    -11 -20  64 NW3       30.39R
MENOMINEE      CLEAR     -8 -15  71 CALM      30.39R
SAWYER-GWINN   CLEAR    -11 -17  77 W7        30.29R WCI -26
$$
MIZ001>003-009>011-084-051400-
WESTERN UPPER MICHIGAN

CITY           SKY/WX    TMP DP  RH WIND       PRES   REMARKS
IRON MOUNTAIN  CLEAR    -18 -23  77 N3        30.32R
HOUGHTON       MOCLDY   -17 -21  82 W7        30.29R WCI -33
COPPER HARBOR    N/A     -6 -12  75 W8        30.32S WCI -21
IRONWOOD       PTCLDY   -13 -22  64 SW6       30.31R WCI -27
$$

ABBREVIATIONS USED IN REMARKS
   TC - TEMPERATURE IN CELSIUS
  WCI - WIND CHILL INDEX
   HX - HEAT INDEX
  VSB - VISIBILITY




USA.gov is the U.S. government's official web portal to all federal, state and local government web resources and services.